Location: *
(50.3440°N, 18.6237°E)
Time: 17:43:14
(UTC+00:00)

BREEZE-M DEB (TANK) - Pass Details

Date: 30 November 2020
Orbit: 307 x 13101 km, 49.6° (Epoch: 22 January)

Event Time Altitude Azimuth Distance (km) Brightness Sun altitude
Rises 15:07:00 0° 245° (WSW) 2,456 9.0 -3.7°
Reaches altitude 10° 15:08:22 10° 243° (WSW) 1,835 7.5 -3.9°
Maximum altitude 15:12:01 71° 158° (SSE) 999 4.2 -4.4°
Drops below altitude 10° 15:24:12 10° 78° (ENE) 5,771 7.4 -6.1°
Enters shadow 15:28:05 - 78° (ENE) 7,243 7.8 -6.7°
